Location: Alston School (historical)
(35.5076°N, 89.8251°W)
Time: 05:57:53
(UTC+00:00)

Hubble Space Telescope - Pass Details

Date: 09 December 2025
Orbit: 479 x 481 km, 28.5° (Epoch: 14 January)

Event Time Altitude Azimuth Distance (km) Brightness Sun altitude
Rises 23:51:17 0° 225° (SW) 2,520 5.5 -12.9°
Reaches altitude 10° 23:54:06 10° 204° (SSW) 1,643 3.9 -13.5°
Maximum altitude 23:56:31 16° 164° (SSE) 1,300 2.7 -13.9°
Enters shadow 23:58:41 11° 127° (SE) 1,581 2.8 -14.4°
